Tracking 35331 objects as of 15-Sep-2026
HD Live streaming from Space Station
objects crossing your sky now

STARLINK-32741

Track STARLINK-32741 now!
10-day predictions
STARLINK-32741 is classified as:


NORAD ID: 62526
Int'l Code: 2025-004R
Launch date: January 8, 2025
Source: United States (US)
Launch site: AIR FORCE EASTERN TEST RANGE (AFETR)
Your satellite tracking list
Your tracking list is empty




NASA's NSSDC Master Catalog

Two Line Element Set (TLE):
1 62526U 25004R   26257.96621812  .00016019  00000-0  59014-3 0  9998
2 62526  43.0031 227.6772 0000569 345.3369  14.7466 15.27593451 95442
Source of the keplerian elements: AFSPC